LRBV Weather Reports


Display with metric or nautical units.
time (UTC)temp
F
wind
direction
speed
MPH
gust
MPH
rain 1hr
in
rain 24hr
in
rain mn
in
humidity
%
barometer
mb
20260508023351 55 160 3.0 0.0 0.00 0.00 0.00 94 1016.0
20260508021852 55 0 0.0 0.0 0.00 0.00 0.00 94 1016.0
20260508020351 55 0 0.0 0.0 0.00 0.00 0.00 94 1016.0
20260508014848 57 3.0 0.0 0.00 0.00 0.00 88 1016.0
20260508013351 57 3.0 0.0 0.00 0.00 0.00 88 1016.0
20260508011851 55 310 7.0 0.0 0.00 0.00 0.00 94 1016.0
20260508010350 55 310 7.0 0.0 0.00 0.00 0.00 94 1016.0
20260508004851 57 310 5.0 0.0 0.00 0.00 0.00 88 1016.0
20260508003350 57 310 5.0 0.0 0.00 0.00 0.00 88 1016.0
20260508001847 57 270 6.0 0.0 0.00 0.00 0.00 88 1016.0
20260508000350 57 270 6.0 0.0 0.00 0.00 0.00 88 1016.0
20260507234848 59 290 8.0 0.0 0.00 0.00 0.00 82 1016.0
20260507233350 59 290 8.0 0.0 0.00 0.00 0.00 82 1016.0
20260507231847 59 290 8.0 0.0 0.00 0.00 0.00 77 1016.0
20260507230350 59 290 8.0 0.0 0.00 0.00 0.00 77 1016.0
20260507224850 61 270 7.0 0.0 0.00 0.00 0.00 68 1016.0
20260507223512 61 270 7.0 0.0 0.00 0.00 0.00 68 1016.0
20260507221848 63 270 7.0 0.0 0.00 0.00 0.00 64 1016.0
20260507220350 63 270 7.0 0.0 0.00 0.00 0.00 64 1016.0
20260507214850 63 3.0 0.0 0.00 0.00 0.00 64 1016.0
20260507213352 63 3.0 0.0 0.00 0.00 0.00 64 1016.0
20260507211851 61 200 7.0 0.0 0.00 0.00 0.00 72 1016.0
20260507210351 61 200 7.0 0.0 0.00 0.00 0.00 72 1016.0
20260507204851 63 220 7.0 0.0 0.00 0.00 0.00 68 1015.0
20260507203351 63 220 7.0 0.0 0.00 0.00 0.00 68 1015.0
20260507201848 64 230 8.0 0.0 0.00 0.00 0.00 64 1015.0
20260507200351 64 230 8.0 0.0 0.00 0.00 0.00 64 1015.0
20260507194856 63 210 10.0 0.0 0.00 0.00 0.00 68 1015.0
20260507193350 63 210 10.0 0.0 0.00 0.00 0.00 68 1015.0
20260507191847 61 210 7.0 0.0 0.00 0.00 0.00 77 1015.0
20260507190351 61 210 7.0 0.0 0.00 0.00 0.00 77 1015.0
20260507184853 64 240 8.0 0.0 0.00 0.00 0.00 64 1015.0
20260507183350 64 240 8.0 0.0 0.00 0.00 0.00 64 1015.0
20260507181851 66 230 11.0 0.0 0.00 0.00 0.00 52 1015.0
20260507180350 66 230 11.0 0.0 0.00 0.00 0.00 52 1015.0
20260507174850 66 230 17.0 0.0 0.00 0.00 0.00 52 1014.0
20260507173351 66 230 17.0 0.0 0.00 0.00 0.00 52 1014.0
20260507171851 68 220 16.0 0.0 0.00 0.00 0.00 46 1014.0
20260507170350 68 220 16.0 0.0 0.00 0.00 0.00 46 1014.0
20260507164851 70 230 18.0 0.0 0.00 0.00 0.00 43 1014.0
20260507163351 70 230 18.0 0.0 0.00 0.00 0.00 43 1014.0
20260507161850 72 230 18.0 0.0 0.00 0.00 0.00 41 1014.0
20260507160350 72 230 18.0 0.0 0.00 0.00 0.00 41 1014.0
20260507154851 72 220 21.0 0.0 0.00 0.00 0.00 38 1014.0
20260507153351 72 220 21.0 0.0 0.00 0.00 0.00 38 1014.0
20260507151851 73 220 22.0 0.0 0.00 0.00 0.00 36 1014.0
20260507150350 73 220 22.0 0.0 0.00 0.00 0.00 36 1014.0
20260507144850 77 220 23.0 0.0 0.00 0.00 0.00 30 1013.0
20260507143352 77 220 23.0 0.0 0.00 0.00 0.00 30 1013.0
20260507141851 77 220 23.0 0.0 0.00 0.00 0.00 30 1013.0
20260507140350 77 220 23.0 0.0 0.00 0.00 0.00 30 1013.0
20260507134851 79 220 20.0 0.0 0.00 0.00 0.00 26 1013.0
20260507133350 79 220 20.0 0.0 0.00 0.00 0.00 26 1013.0
20260507131847 79 220 18.0 0.0 0.00 0.00 0.00 28 1014.0
20260507130350 79 220 18.0 0.0 0.00 0.00 0.00 28 1014.0
20260507124847 79 230 16.0 0.0 0.00 0.00 0.00 30 1014.0
20260507123429 79 230 16.0 0.0 0.00 0.00 0.00 30 1014.0
20260507121850 79 220 15.0 0.0 0.00 0.00 0.00 28 1014.0
20260507120350 79 220 15.0 0.0 0.00 0.00 0.00 28 1014.0
20260507114850 77 200 8.0 0.0 0.00 0.00 0.00 30 1014.0
20260507113412 77 0 0.0 0.0 0.00 0.00 0.00 30 1014.0
20260507111850 77 0 0.0 0.0 0.00 0.00 0.00 30 1014.0
20260507110350 77 0 0.0 0.0 0.00 0.00 0.00 30 1014.0
20260507104850 77 330 3.0 0.0 0.00 0.00 0.00 30 1014.0
20260507103350 77 330 3.0 0.0 0.00 0.00 0.00 30 1014.0
20260507101850 77 3.0 0.0 0.00 0.00 0.00 28 1015.0
20260507100351 77 3.0 0.0 0.00 0.00 0.00 28 1015.0
20260507094851 75 60 6.0 0.0 0.00 0.00 0.00 29 1015.0
20260507093351 75 60 6.0 0.0 0.00 0.00 0.00 29 1015.0
20260507091852 72 100 3.0 0.0 0.00 0.00 0.00 41 1015.0
20260507090351 72 100 3.0 0.0 0.00 0.00 0.00 41 1015.0
20260507084850 68 40 3.0 0.0 0.00 0.00 0.00 49 1015.0
20260507083351 68 40 3.0 0.0 0.00 0.00 0.00 49 1015.0
20260507081851 66 60 5.0 0.0 0.00 0.00 0.00 49 1016.0
20260507080351 66 60 5.0 0.0 0.00 0.00 0.00 49 1016.0
20260507074851 66 100 8.0 0.0 0.00 0.00 0.00 52 1016.0
20260507073350 66 100 8.0 0.0 0.00 0.00 0.00 52 1016.0
20260507071851 63 100 6.0 0.0 0.00 0.00 0.00 56 1016.0
20260507070350 63 100 6.0 0.0 0.00 0.00 0.00 56 1016.0
20260507064850 61 100 6.0 0.0 0.00 0.00 0.00 59 1016.0
20260507063350 61 100 6.0 0.0 0.00 0.00 0.00 59 1016.0
20260507061900 57 110 7.0 0.0 0.00 0.00 0.00 67 1016.0
20260507060350 57 110 7.0 0.0 0.00 0.00 0.00 67 1016.0
20260507054850 55 2.0 0.0 0.00 0.00 0.00 72 1016.0
20260507053358 55 2.0 0.0 0.00 0.00 0.00 72 1016.0
20260507051851 52 1.0 0.0 0.00 0.00 0.00 77 1016.0
20260507050350 52 1.0 0.0 0.00 0.00 0.00 77 1016.0
20260507044844 50 2.0 0.0 0.00 0.00 0.00 82 1016.0
20260507043350 50 2.0 0.0 0.00 0.00 0.00 82 1016.0
20260507041851 48 50 3.0 0.0 0.00 0.00 0.00 87 1016.0
20260507040350 48 50 3.0 0.0 0.00 0.00 0.00 87 1016.0
20260507034847 48 1.0 0.0 0.00 0.00 0.00 82 1016.0
20260507033350 48 1.0 0.0 0.00 0.00 0.00 82 1016.0
20260507031847 45 2.0 0.0 0.00 0.00 0.00 87 1016.0
20260507030350 45 2.0 0.0 0.00 0.00 0.00 87 1016.0
20260507024847 45 3.0 0.0 0.00 0.00 0.00 87 1015.0